This is the latest recevied weather packets stored in our database for station/object W4NRG-1. If no packets are shown the sender has not sent any weather packets the latest 10 day(s).
| Time | Temp. | Humidity | Pressure | Rain* | Wind** | Luminosity | Snow |
|---|---|---|---|---|---|---|---|
| 1778005086 | 28.33° C | 33% | 1013.2 hPa | 0 mm | - | - | - |
| 1778004783 | 28.33° C | 37% | 1013.3 hPa | 0 mm | - | - | - |
| 1778004479 | 28.33° C | 39% | 1013.2 hPa | 0 mm | - | - | - |
| 1778004176 | 27.78° C | 37% | 1013.6 hPa | 0 mm | - | - | - |
| 1778003873 | 27.78° C | 39% | 1013.6 hPa | 0 mm | - | - | - |
| 1778003569 | 27.78° C | 39% | 1013.6 hPa | 0 mm | - | - | - |
| 1778003266 | 27.78° C | 38% | 1013.7 hPa | 0 mm | - | - | - |
| 1778002963 | 27.78° C | 37% | 1013.5 hPa | 0 mm | - | - | - |
| 1778002659 | 27.78° C | 42% | 1013.6 hPa | 0 mm | - | - | - |
| 1778002356 | 27.22° C | 41% | 1013.3 hPa | 0 mm | - | - | - |
| 1778002053 | 27.22° C | 41% | 1013.7 hPa | 0 mm | - | - | - |
| 1778001749 | 27.78° C | 41% | 1013.7 hPa | 0 mm | - | - | - |
| 1778001449 | 27.22° C | 40% | 1013.9 hPa | 0 mm | - | - | - |
| 1778001147 | 26.67° C | 44% | 1013.8 hPa | 0 mm | - | - | - |
| 1778000843 | 27.22° C | 43% | 1013.7 hPa | 0 mm | - | - | - |
| 1778000540 | 27.22° C | 43% | 1014 hPa | 0 mm | - | - | - |
| 1778000236 | 26.67° C | 43% | 1014.3 hPa | 0 mm | - | - | - |
| 1777999932 | 26.67° C | 43% | 1014.3 hPa | 0 mm | - | - | - |
| 1777999627 | 27.22° C | 41% | 1014.2 hPa | 0 mm | - | - | - |
| 1777999325 | 26.67° C | 41% | 1014.4 hPa | 0 mm | - | - | - |
| 1777999023 | 26.67° C | 43% | 1014.5 hPa | 0 mm | - | - | - |
| 1777998721 | 26.67° C | 43% | 1014.3 hPa | 0 mm | - | - | - |
| 1777998418 | 26.67° C | 43% | 1014.3 hPa | 0 mm | - | - | - |
| 1777998115 | 26.11° C | 44% | 1014.4 hPa | 0 mm | - | - | - |
| 1777997812 | 26.11° C | 44% | 1014.6 hPa | 0 mm | - | - | - |
* Rain latest hour (hover to see other rain measurements)
** Current wind speed in m/s (hover to see current wind gust speed)